Flag for U.S.A. Weather past 2 weeks in Charleston, West Virginia, U.S.A.

Now
71 °F

Passing clouds.


Feels Like: 69 °F
Forecast: 68 / 89 °F
Wind: No wind

Location: Yeager Airport

Current Time: Sep 2, 2015 at 1:15:32 AM

Latest Report: Sep 1, 2015 at 11:54 PM


Visibility: 7 mi

Pressure: 30.09 "Hg

Humidity: 87%

Dew point: 67 °F

Location of CharlestonLocation

Historic Weather in Charleston — Graph

°F

Charleston temperature yesterday

Maximum temperature yesterday: 90 °F (at 4:54 PM)
Minimum temperature yesterday: 64 °F (at 6:54 AM)
Average temperature yesterday: 74 °F

Past Weeks' High & Low Weather Summary

 TemperatureHumidityPressure
High90 °F (Sep 1, 4:54 PM)97% (Aug 18, 3:54 AM)30.19 "Hg (Aug 18, 3:54 AM)
Low54 °F (Aug 28, 5:54 AM)39% (Aug 31, 5:54 PM)29.82 "Hg (Aug 20, 3:54 AM)
Average71 °F77%30.04 "Hg
* Reported Aug 17 11:01 PM — Sep 1 11:54 PM, Charleston, Weather by CustomWeather, © 2015

Note: Actual official high and low records may vary slightly from our data, if they occured in-between our weather recording intervals... More about our weather records

Advertising

Charleston weather history for previous 24 hours

 ConditionsComfort  
Time TempWeatherWind HumidityBarometerVisibility
11:54 PM
Tue, Sep 1
71 °FPassing clouds.No wind87%30.09 "Hg7 mi
10:54 PM72 °FPassing clouds.No wind84%30.09 "Hg7 mi
9:54 PM74 °FClear.No wind82%30.09 "Hg10 mi
8:54 PM76 °FScattered clouds.No wind80%30.09 "Hg9 mi
7:54 PM78 °FScattered clouds.No wind71%30.07 "Hg9 mi
6:54 PM84 °FScattered clouds.No wind57%30.06 "Hg10 mi
4:54 PM90 °FScattered clouds.5 mph41%30.06 "Hg10 mi
3:54 PM88 °FScattered clouds.6 mph42%30.07 "Hg10 mi
2:54 PM87 °FScattered clouds.3 mph46%30.09 "Hg10 mi
1:54 PM86 °FScattered clouds.3 mph48%30.11 "Hg10 mi
12:54 PM84 °FScattered clouds.5 mph51%30.13 "Hg10 mi
11:54 AM81 °FBroken clouds.No wind62%30.14 "Hg10 mi
10:54 AM79 °FBroken clouds.No wind67%30.15 "Hg10 mi
9:54 AM74 °FScattered clouds.No wind79%30.15 "Hg8 mi
8:54 AM66 °FScattered clouds.No wind96%30.15 "Hg8 mi
7:54 AM65 °FFog.No wind97%30.14 "Hg2 mi
6:54 AM64 °FFog.3 mph97%30.12 "Hg1 mi
6:03 AM65 °FFog.No wind94%30.13 "Hg2 mi
5:54 AM65 °FFog.No wind94%30.09 "Hg4 mi
4:54 AM65 °FFog.No wind94%30.09 "Hg4 mi
3:54 AM65 °FFog.No wind97%30.09 "Hg4 mi
2:54 AM67 °FFog.No wind93%30.09 "Hg6 mi
1:54 AM67 °FFog.No wind97%30.10 "Hg6 mi
Weather by CustomWeather, © 2015

See weather overviewHow to use our weather pages